Location: Newark
(38.6492°N, 88.9193°W)
Time: 05:17:55
(UTC+00:00)

LightSail 2 - Pass Details

Date: 17 November 2019
Orbit: 696 x 730 km, 24.0° (Epoch: 10 December)

Event Time Altitude Azimuth Distance (km) Brightness Sun altitude
Exits shadow 09:40:08 10° 151° (SSE) 2,173 7.9 -35.0°
Drops below altitude 10° 09:40:16 10° 150° (SSE) 2,201 7.9 -35.0°
Sets 09:43:43 0° 127° (SE) 3,130 9.1 -34.3°
